Regional Weather Roundup
Issued by NWS

Home | Current Version | Previous Version | Text Only | Print | Product List | Glossary Off
Versions: 1 2 3 4 5 6 7 8 9 10 11 12 13 14 15 16 17 18 19 20 21 22 23 24 25 26 27 28 29 30 31 32 33 34 35 36 37 38 39 40 41 42 43 44 45 46 47 48 49 50

000
ASUS43 KFSD 301110
RWRSD

WEATHER ROUNDUP FOR SOUTH DAKOTA
NATIONAL WEATHER SERVICE SIOUX FALLS SD
600 AM CDT THU JUL 30 2015

NOTE: "FAIR" INDICATES FEW OR NO CLOUDS BELOW 12,000 FEET WITH NO
SIGNIFICANT WEATHER AND/OR OBSTRUCTIONS TO VISIBILITY.


SDZ001>005-009-010-012>017-301200-
NORTHWEST AND NORTH CENTRAL SOUTH DAKOTA

CITY           SKY/WX    TMP DP  RH WIND       PRES   REMARKS
BUFFALO          N/A     57  40  52 W8        30.15S
FAITH            N/A     59  40  49 SW7       30.18S
MOBRIDGE         N/A     54  53  97 CALM      30.12S
$$

SDZ012>016-024>037-041>051-057-063-072>074-301200-
SOUTHWEST AND SOUTH CENTRAL SOUTH DAKOTA

CITY           SKY/WX    TMP DP  RH WIND       PRES   REMARKS
RAPID CTY ARPT CLEAR     56  45  66 W9        30.24R
PIERRE         CLEAR     54  48  80 SW3       30.13S
CUSTER         CLEAR     50  36  58 NW5       30.35S
ELLSWORTH AFB  CLEAR     55  45  69 W10       30.22S
PHILIP         CLEAR     52  50  93 W7        30.17S
PINE RIDGE     CLEAR     56  48  74 W5        30.23R
SPEARFISH      FAIR      55  41  58 CALM      30.28R
WINNER         FAIR      66  50  56 W8        30.16R
$$

SDZ004>011-016>023-039-040-301200-
NORTHEAST SOUTH DAKOTA

CITY           SKY/WX    TMP DP  RH WIND       PRES   REMARKS
ABERDEEN       CLEAR     57  50  77 CALM      30.10F
WATERTOWN      CLEAR     60  53  77 SW9       30.11S
BROOKINGS      CLEAR     55  52  88 NE5       30.14S
SISSETON         N/A     64  54  69 W10       30.06S
$$

SDZ017-020-022-023-036>040-048>070-301200-
SOUTHEAST SOUTH DAKOTA

CITY           SKY/WX    TMP DP  RH WIND       PRES   REMARKS
SIOUX FALLS    PTCLDY    59  56  89 CALM      30.13R
HURON          CLEAR     58  51  78 NE3       30.12R
CHAMBERLAIN    CLEAR     57  53  86 CALM      30.14S
MITCHELL       CLEAR     58  55  90 CALM      30.13R
YANKTON        MOCLDY    68  57  68 SW8       30.13S
$$

ABBREVIATIONS USED IN REMARKS
   TC - TEMPERATURE IN CELSIUS
  WCI - WIND CHILL INDEX
   HX - HEAT INDEX
  VSB - VISIBILITY




USA.gov is the U.S. government's official web portal to all federal, state and local government web resources and services.